Location: ??????
(55.2000°N, 38.3000°E)
Time: 08:35:25
(UTC+00:00)

Cosmos 1802 Rocket - Pass Details

Date: 15 November 2025
Orbit: 953 x 1011 km, 82.9° (Epoch: 14 December)

Event Time Altitude Azimuth Distance (km) Brightness Sun altitude
Rises 01:11:14 0° 348° (NNW) 3,739 7.1 -32.1°
Reaches altitude 10° 01:13:47 10° 349° (N) 2,778 6.4 -31.8°
Enters shadow 01:17:49 42° 354° (N) 1,395 4.7 -31.2°
Exits shadow 01:21:25 61° 158° (SSE) 1,114 4.2 -30.7°
Drops below altitude 10° 01:26:27 10° 168° (SSE) 2,719 6.3 -30.0°
Sets 01:28:56 0° 169° (S) 3,655 7.0 -29.6°
